Regional Weather Roundup
Issued by NWS

Home | Current Version | Previous Version | Graphics & Text | Print | Product List | Glossary On
Versions: 1 2 3 4 5 6 7 8 9 10 11 12 13 14 15 16 17 18 19 20 21 22 23 24 25 26 27 28 29 30 31 32 33 34 35 36 37 38 39 40 41 42 43 44 45 46 47 48 49 50
000
ASUS43 KTOP 291559
RWRKS

WEATHER ROUNDUP FOR KANSAS
NATIONAL WEATHER SERVICE GOODLAND KS
1100 AM CDT TUE JUL 29 2014

NOTE:  "FAIR" INDICATES FEW OR NO CLOUDS BELOW 12,000 FEET WITH NO
SIGNIFICANT WEATHER AND/OR OBSTRUCTIONS TO VISIBILITY.

KSZ001>006-013>018-027>032-041>047-291700-
NORTHWEST KANSAS

CITY           SKY/WX    TMP DP  RH WIND       PRES   REMARKS
GOODLAND       PTSUNNY   77  63  61 S14       30.22F
HAYS           SUNNY     79  57  47 SE10      30.21S
RUSSELL        SUNNY     78  58  49 SE10      30.19F
$$

KSZ061>065-074>080-084>089-291700-
SOUTHWEST KANSAS

CITY           SKY/WX    TMP DP  RH WIND       PRES   REMARKS
DODGE CITY     SUNNY     80  56  43 S12       30.21S
ELKHART          N/A     68  62  81 S10         N/A
GARDEN CITY    SUNNY     78  61  55 SW16      30.20F
GREAT BEND     SUNNY     77  59  53 S12       30.19F
LIBERAL        PTSUNNY   66  57  72 S10       30.26R
$$

KSZ066>073-081>083-090>101-291700-
SOUTHEAST KANSAS

CITY           SKY/WX    TMP DP  RH WIND       PRES   REMARKS
CHANUTE        CLOUDY    75  62  64 VRB3      30.20S
COFFEYVILLE    MOSUNNY   78  59  51 W3        30.19R
HUTCHINSON     PTSUNNY   77  59  53 SE9       30.21R
NEWTON         SUNNY     75  57  53 SE8       30.24S
PARSONS        CLOUDY    77  60  55 W5        30.21R
WICHITA INTL   MOSUNNY   80  60  50 SE9       30.19F
WICHITA JABRA  SUNNY     78  60  53 SE5       30.20S
WINFIELD       SUNNY     82  61  48 SE7       30.21R
$$

KSZ007>012-019>026-033>040-048>060-102>105-291700-
NORTHEAST KANSAS

CITY           SKY/WX    TMP DP  RH WIND       PRES   REMARKS
EMPORIA        PTSUNNY   73  58  59 VRB3      30.21R
LAWRENCE       MOSUNNY   79  58  48 VRB6      30.19S
MANHATTAN      CLOUDY    70  59  68 W7        30.22R
OLATHE IND     MOSUNNY   77  58  51 MISG      30.20R
OLATHE EXE     PTSUNNY   75  57  53 SW6       30.19R
SALINA         SUNNY     79  55  43 E8        30.21S
TOPEKA BILLARD MOSUNNY   78  57  48 VRB3      30.20S
TOPEKA FORBES  PTSUNNY   76  57  51 VRB5      30.20S
$$



USA.gov is the U.S. government's official web portal to all federal, state and local government web resources and services.